[Date Prev][Date Next][Thread Prev][Thread Next] - [Date Index][Thread Index][Author Index]

2 Line ISS Keps 7-26



ISS
1 25544U 98067A   01207.18354591  .00453819  00000-0  56798-2 0  2581
2 25544  51.6406 251.5035 0011275 299.5253 155.1406 15.57654065153179


----
Via the sarex mailing list at AMSAT.ORG courtesy of AMSAT-NA.
To unsubscribe, send "unsubscribe sarex" to Majordomo@amsat.org



AMSAT Top AMSAT Home